Flag Weather past 2 weeks in Lucknow, Uttar Pradesh, India

Now
84 °F

Broken clouds.


Feels Like: 83 °F
Forecast: 65 / 89 °F
Wind: 6 mph from West

Location: Lucknow / Amausi

Current Time: Nov 1, 2014 at 4:07:51 PM

Latest Report: Nov 1, 2014 at 3:30 PM


Visibility: 2 mi

Pressure: 29.89 "Hg

Humidity: 40%

Dew point: 57 °F

Location of LucknowLocation

Historic Weather in Lucknow — Graph

°F

Lucknow temperature yesterday

Maximum temperature yesterday: 86 °F (at 2:30 PM)
Minimum temperature yesterday: 68 °F (at 7:00 AM)
Average temperature yesterday: 77 °F

Past Weeks' High & Low Weather Summary

 TemperatureHumidityPressure
High91 °F (Oct 18, 1:00 PM)100% (Oct 24, 5:00 AM)30.07 "Hg (Oct 24, 5:00 AM)
Low64 °F (Oct 18, 6:00 AM)36% (Oct 18, 1:00 PM)29.83 "Hg (Oct 19, 3:00 PM)
Average77 °F71%29.92 "Hg
* Reported Oct 17 2:30 PM — Nov 1 2:30 PM, Lucknow, Weather by CustomWeather, © 2014

Note: Actual official high and low records may vary slightly from our data, if they occured in-between our weather recording intervals... More about our weather records

Advertising

Lucknow weather history for previous 24 hours

 ConditionsComfort  
Time TempWeatherWind HumidityBarometerVisibility
2:30 PM
Nov 1
84 °FBroken clouds.6 mph40%29.89 "Hg1 mi
2:00 PM84 °FScattered clouds.5 mph43%29.89 "Hg1 mi
1:30 PM84 °FBroken clouds.6 mph45%29.92 "Hg1 mi
1:00 PM84 °FBroken clouds.6 mph45%29.92 "Hg1 mi
12:30 PM84 °FBroken clouds.6 mph45%29.95 "Hg1 mi
12:00 PM82 °FBroken clouds.5 mph48%29.95 "Hg1 mi
11:30 AM82 °FBroken clouds.3 mph48%29.98 "Hg1 mi
11:00 AM79 °FBroken clouds.5 mph58%29.98 "Hg1 mi
10:30 AM75 °FBroken clouds.2 mph69%29.98 "Hg1 mi
10:00 AM73 °FFog.2 mph74%29.98 "Hg1 mi
9:30 AM72 °FFog.2 mph73%29.98 "Hg1 mi
8:30 AM70 °FFog.No wind78%29.95 "Hg1 mi
8:00 AM66 °FFog.No wind88%29.95 "Hg1 mi
7:30 AM66 °FFog.No wind88%29.92 "Hg1 mi
7:00 AM66 °FFog.No wind88%29.92 "Hg1 mi
6:30 AM66 °FFog.No wind88%29.89 "Hg1 mi
6:00 AM66 °FFog.No wind88%29.89 "Hg1 mi
5:30 AM66 °FFog.No wind88%29.86 "Hg1 mi
5:00 AM66 °FFog.No wind94%29.86 "Hg1 mi
2:00 AM70 °FFog.No wind83%29.89 "Hg1 mi
1:00 AM70 °FFog.No wind88%29.89 "Hg1 mi
12:00 AM70 °FFog.No wind88%29.92 "Hg1 mi
11:00 PM
Oct 31
72 °FFog.No wind88%29.92 "Hg1 mi
10:00 PM72 °FFog.No wind88%29.89 "Hg1 mi
9:00 PM73 °FHaze.No wind83%29.92 "Hg1 mi
8:30 PM73 °FPassing clouds.No wind83%29.89 "Hg1 mi
8:00 PM73 °FPassing clouds.No wind83%29.89 "Hg1 mi
7:30 PM75 °FPassing clouds.No wind78%29.89 "Hg1 mi
7:00 PM77 °FHaze.No wind79%29.89 "Hg1 mi
6:30 PM79 °FPassing clouds.No wind74%29.86 "Hg1 mi
6:00 PM81 °FPartly cloudy.No wind66%29.86 "Hg1 mi
5:30 PM82 °FPartly sunny.No wind62%29.86 "Hg1 mi
5:00 PM84 °FBroken clouds.No wind58%29.86 "Hg1 mi
4:30 PM84 °FBroken clouds.2 mph58%29.86 "Hg1 mi
4:00 PM84 °FBroken clouds.3 mph58%29.86 "Hg1 mi
Weather by CustomWeather, © 2014

See weather overviewHow to use our weather pages